Theta_e
342 341 341 340 342 339 338 336 336 335 337 337 334 332 332 336 334 333 337 334 335 335 335 334 334 335 334 334 332 332 333 334 335 335 334 333 335 339 337 336 335 333 335 335 335 333 332 330 327 328 328 325 325 325 325 324 323 322 322 322 321 322 322 320 317 317 320 323 323 324 327 330 331 334 334 335 336 338 342 342 343 343 343 343 343
343 341 341 341 339 338 337 337 337 336 335 335 336 335 336 336 335 335 332 333 336 336 334 335 335 334 333 333 333 333 333 334 334 333 332 331 333 337 336 333 332 332 332 333 334 335 331 327 327 328 327 325 324 324 324 323 322 321 321 321 320 321 322 320 319 317 316 320 320 323 324 328 327 333 334 334 336 338 339 341 341 341 341 342 343
344 343 340 339 337 337 337 336 336 335 335 335 335 335 336 335 336 334 334 335 336 335 335 334 334 335 334 332 330 331 334 334 335 334 333 332 331 332 335 332 331 332 333 332 332 331 329 328 327 327 329 325 325 324 324 322 322 320 321 322 321 321 322 322 320 317 316 317 320 320 321 324 325 327 332 335 338 340 339 340 340 341 341 341 341
344 342 341 339 338 337 337 337 337 337 335 336 335 334 335 334 335 335 334 334 333 335 336 335 335 332 330 330 331 332 332 332 335 335 333 332 331 331 332 332 333 334 333 332 332 329 327 327 327 326 327 324 323 323 322 322 321 321 321 321 321 321 322 321 321 319 318 316 318 319 321 322 324 327 331 335 336 338 340 341 342 340 340 340 340
342 340 339 338 338 337 337 338 336 336 334 335 334 333 331 330 336 335 334 333 332 332 332 332 330 329 331 331 331 332 333 333 334 334 332 332 331 332 331 330 332 330 329 330 334 330 328 327 327 326 325 324 323 323 322 321 321 321 321 321 322 322 322 321 320 320 318 316 317 320 321 322 324 326 330 332 334 337 339 340 341 340 339 340 341
342 339 337 337 336 336 335 335 335 334 333 332 332 332 330 330 329 330 329 327 327 328 327 329 333 330 328 326 327 329 331 331 334 333 332 330 329 330 332 334 334 332 332 333 332 332 330 327 327 326 326 324 324 324 323 321 320 320 320 321 321 322 321 320 320 319 318 318 317 317 320 320 321 323 327 330 332 333 336 338 340 341 339 338 339
340 339 338 336 336 334 334 333 333 333 334 332 332 332 331 328 329 329 329 326 326 327 329 329 330 330 330 331 331 331 332 331 328 334 331 330 330 330 330 331 331 331 331 333 333 332 331 329 327 326 326 325 324 324 323 321 322 320 322 322 322 321 320 320 320 319 318 317 318 318 318 320 321 320 325 329 332 334 334 335 336 340 340 339 337
340 339 339 338 337 334 334 334 333 333 334 335 334 332 331 330 331 333 334 331 330 328 329 329 329 332 331 330 330 331 328 332 335 332 332 331 330 330 329 329 328 326 326 328 331 331 331 330 329 328 327 326 324 323 323 321 321 320 322 322 322 321 320 320 319 319 318 317 317 317 318 318 319 322 324 326 328 332 334 333 331 332 335 338 339
340 340 339 339 338 335 334 334 334 335 337 336 335 333 332 332 333 333 334 333 334 331 331 331 330 330 330 330 328 329 333 333 335 332 329 329 331 331 331 330 329 327 326 326 328 330 331 330 329 328 330 326 324 323 323 322 323 321 321 322 322 322 321 320 319 318 317 317 316 318 317 317 318 318 319 320 322 324 330 332 332 333 335 336 338
337 338 338 339 340 337 335 336 335 335 335 334 332 332 332 333 333 332 333 333 333 334 332 333 333 330 328 326 327 332 332 332 334 331 333 333 331 332 332 330 329 327 327 327 328 328 328 327 329 334 326 325 324 322 320 319 319 321 322 322 322 320 320 319 319 318 317 316 316 316 315 315 316 317 318 320 322 325 327 329 329 332 333 333 337
335 335 335 339 340 338 336 336 336 335 335 333 333 332 332 333 333 333 334 334 335 335 335 332 331 329 327 327 325 331 330 332 330 326 327 330 331 328 329 330 330 328 327 324 322 323 323 323 324 329 330 328 326 323 321 320 320 320 320 320 319 320 319 319 319 319 318 316 316 316 315 315 316 318 318 319 321 323 325 328 329 330 329 328 327
337 336 337 340 338 337 336 335 335 334 334 333 334 334 333 333 333 333 334 334 335 335 334 332 331 330 329 326 325 331 328 329 325 323 325 325 329 328 328 329 330 327 324 323 323 324 324 324 325 326 327 326 325 325 324 324 322 321 320 318 317 318 318 321 320 317 317 316 315 315 316 315 316 318 318 319 320 322 325 327 329 329 329 329 330
339 339 337 338 337 335 334 334 333 333 333 333 333 333 332 333 333 333 333 335 335 335 333 332 331 331 328 325 324 328 328 328 324 322 323 323 325 326 326 328 329 329 328 327 326 325 324 326 326 327 327 328 330 326 323 323 322 320 318 318 318 318 320 321 319 321 320 317 316 316 316 317 316 318 320 320 322 321 323 325 327 329 330 329 330
339 338 336 337 338 335 334 333 332 333 333 333 333 332 332 332 332 333 334 334 335 334 332 331 330 328 328 326 327 329 330 327 322 320 320 320 321 325 325 326 327 327 327 328 329 327 326 327 326 326 326 326 326 326 325 324 324 324 323 324 325 325 321 319 318 317 319 319 318 316 318 319 318 319 321 322 320 319 320 321 325 328 330 330 333
337 337 336 339 338 335 334 334 333 333 334 333 333 332 333 332 333 334 333 332 333 332 331 329 328 330 330 330 330 331 333 324 319 318 317 316 318 323 321 323 324 325 326 328 329 328 327 328 327 326 326 326 328 328 326 324 322 322 323 324 324 323 322 321 321 320 320 319 318 318 318 320 320 321 321 322 321 320 321 322 325 327 330 335 336
337 337 336 339 337 335 335 334 334 334 334 334 333 332 332 332 332 333 335 333 332 331 330 330 329 329 328 329 330 330 331 321 318 316 315 315 319 322 321 321 322 324 326 328 328 327 327 327 326 325 323 323 322 322 322 322 319 320 322 321 320 319 320 319 318 319 319 319 318 318 319 319 317 319 321 321 321 322 323 325 325 327 328 328 328
335 335 335 338 337 336 335 334 333 334 334 334 333 332 331 331 332 334 334 333 330 329 328 327 327 326 327 329 329 329 328 320 314 313 313 314 317 320 321 324 324 325 325 326 327 327 326 325 325 325 324 322 321 315 315 317 320 319 319 318 318 318 319 321 319 316 316 314 312 313 314 315 315 315 314 315 318 319 321 321 321 324 324 324 327
335 335 336 337 337 336 335 335 333 333 332 333 333 332 332 333 332 333 330 328 327 326 326 327 328 328 326 324 329 328 328 326 316 312 312 313 316 321 322 323 323 325 326 328 327 327 327 332 331 325 323 321 314 312 313 318 318 317 316 316 316 316 318 319 319 319 316 315 315 316 316 317 317 317 317 317 315 315 318 316 319 321 320 323 325
335 335 336 337 336 336 336 335 334 332 331 332 332 332 331 332 332 332 331 329 327 327 329 327 327 324 323 325 329 323 324 320 311 313 313 313 319 322 324 324 325 325 325 325 326 326 325 327 329 323 321 318 310 312 312 313 317 314 315 316 315 316 317 318 316 316 317 318 318 319 319 319 322 323 324 320 319 317 318 319 320 319 319 322 327
335 335 336 336 336 336 335 335 334 332 331 331 331 331 332 332 334 334 331 329 328 328 327 329 324 324 323 323 326 325 323 323 324 311 312 313 314 320 322 322 323 324 324 325 325 325 325 323 323 313 313 311 308 307 307 306 312 314 314 315 315 315 318 316 317 317 317 318 317 318 319 320 321 322 322 323 323 322 319 319 320 320 320 322 328
334 333 333 334 335 335 334 333 332 332 332 332 332 333 332 337 338 334 330 329 327 327 328 325 324 325 323 325 324 324 325 324 324 316 314 313 312 316 322 321 320 320 319 319 319 320 322 320 322 312 309 309 306 303 301 303 305 311 315 317 317 316 311 313 318 317 318 318 318 318 318 319 319 320 321 322 324 321 320 319 321 321 321 322 326
333 332 332 332 332 333 332 332 333 333 334 334 332 333 334 330 329 331 330 328 327 327 327 326 324 324 323 323 322 322 327 329 326 320 317 312 308 310 318 321 319 317 317 318 319 320 322 323 322 315 307 304 303 301 300 302 306 317 315 305 305 308 313 318 318 318 316 316 316 317 317 317 317 318 319 320 322 325 322 320 321 322 323 324 328
333 332 332 331 331 331 332 334 336 334 332 331 330 338 336 331 327 327 326 325 326 326 325 324 324 323 323 321 322 323 323 325 323 325 316 309 306 308 308 311 311 316 316 317 317 318 320 323 322 315 304 300 300 301 302 307 311 311 303 305 307 309 313 316 316 315 314 315 314 314 315 316 316 316 318 318 320 322 325 324 322 323 324 326 330
335 332 332 334 335 334 335 335 331 331 335 334 333 329 331 332 332 329 329 327 325 324 323 323 322 321 321 322 323 323 322 323 324 322 319 311 308 306 307 307 308 313 315 314 316 317 319 320 317 305 301 300 301 303 307 310 312 304 304 307 309 311 315 315 313 313 314 313 313 313 313 316 316 316 317 319 320 322 324 329 325 325 325 327 331
333 331 332 337 337 335 334 333 332 329 329 331 332 330 328 327 323 324 324 327 326 326 322 322 320 319 319 320 319 319 321 323 325 321 319 315 312 308 308 309 309 309 313 315 319 320 315 306 304 304 306 306 307 308 313 311 308 307 307 308 312 313 313 312 312 312 311 311 312 312 313 315 316 318 319 320 321 322 322 325 332 328 328 329 332
331 333 337 335 331 330 330 331 330 329 331 329 325 323 321 323 325 326 326 328 326 324 323 322 321 319 321 320 319 318 320 321 319 317 319 317 314 311 310 311 311 311 312 316 313 311 309 308 310 309 311 317 318 320 317 314 312 311 311 312 312 312 312 311 311 311 310 311 312 312 313 315 316 318 320 320 319 318 320 320 325 332 332 331 331
337 335 335 333 328 327 328 329 330 330 325 325 326 328 326 328 327 326 324 325 328 327 324 322 321 322 321 321 320 320 322 316 313 314 313 311 311 312 312 313 312 311 312 313 312 311 312 314 316 313 314 314 316 317 316 317 316 313 313 313 312 312 312 311 311 310 311 311 312 312 314 315 317 318 317 317 318 319 320 321 319 319 327 331 329
331 331 332 336 332 331 331 339 331 324 322 319 317 318 322 323 320 317 316 318 317 318 320 319 318 319 318 320 319 319 315 310 309 310 311 310 309 308 309 310 307 306 306 307 306 307 311 312 317 318 318 315 314 313 312 313 314 313 311 312 312 313 313 313 313 310 310 311 312 313 314 314 314 315 316 316 317 318 320 319 318 318 319 323 325
334 332 331 328 328 328 326 328 324 320 314 309 307 306 310 316 312 309 309 309 314 317 316 314 315 314 318 317 318 320 317 310 309 305 309 305 306 305 306 305 304 304 306 304 305 306 311 317 314 312 312 313 310 310 309 308 310 310 310 309 311 310 308 308 307 307 308 310 310 311 311 312 313 315 315 315 316 317 319 319 319 317 317 317 315
333 329 325 326 325 325 324 322 324 319 315 311 309 308 304 298 306 311 308 307 304 302 305 310 311 313 309 306 309 312 310 309 301 297 295 294 295 295 295 294 294 298 298 298 302 303 311 310 310 309 309 308 307 307 307 306 307 307 307 308 310 308 307 307 306 306 307 309 310 309 309 311 311 312 314 314 314 316 317 317 318 318 315 314 313
327 324 326 323 324 325 321 324 325 319 318 315 312 310 307 305 295 296 302 302 298 294 294 296 300 307 311 306 305 303 302 297 294 294 293 293 293 293 292 292 293 293 294 299 310 310 310 309 308 307 307 306 307 306 306 305 306 305 305 306 307 307 306 305 305 306 307 308 309 308 308 310 310 311 312 313 314 314 316 317 318 318 316 315 313
325 323 323 324 327 326 322 326 327 326 321 318 314 312 309 306 306 297 294 295 295 293 292 293 293 296 302 306 304 305 299 294 294 294 293 293 293 293 292 293 293 293 294 297 309 307 306 305 304 304 305 305 305 306 305 303 303 303 303 303 303 305 304 303 304 306 306 307 307 307 308 308 309 310 311 312 312 313 313 315 316 317 317 316 315
323 322 328 329 328 331 328 326 323 322 324 320 317 314 311 309 307 306 305 296 294 293 293 292 292 294 296 298 300 301 301 298 295 293 293 293 292 292 293 293 292 292 299 306 305 304 304 303 302 302 302 302 302 303 303 302 302 302 302 302 301 302 302 303 304 305 306 306 306 306 307 308 309 309 310 311 311 311 312 313 314 316 317 316 316
326 327 326 325 325 326 325 323 323 326 326 322 320 318 317 314 310 308 307 307 307 303 298 294 292 296 295 294 294 294 294 295 295 294 293 293 293 293 292 298 296 293 300 305 303 302 302 301 302 302 301 302 301 302 302 301 302 301 301 301 301 301 301 302 302 302 304 305 305 305 306 307 308 308 308 309 310 311 311 312 313 313 314 315 315
328 331 334 338 325 326 325 326 323 321 323 325 325 324 322 319 316 312 310 309 308 308 307 308 298 290 300 301 299 295 294 293 293 294 294 294 295 294 293 307 309 305 304 305 304 301 302 302 301 302 302 301 302 302 301 301 300 300 299 300 299 299 300 300 300 301 302 302 303 303 304 305 307 307 308 308 308 309 309 310 311 312 313 313 314
328 326 327 328 331 329 329 327 325 323 322 323 324 325 325 322 318 316 313 314 313 311 310 308 308 305 295 292 291 292 294 294 293 294 293 293 295 302 307 305 304 305 305 304 304 304 304 303 302 302 302 303 304 302 302 301 300 299 298 299 299 299 299 300 299 300 301 301 301 303 302 303 305 305 306 307 308 308 309 309 310 311 313 312 313
326 325 326 326 327 328 327 326 324 323 324 322 322 321 323 323 323 319 317 317 316 315 312 312 311 310 306 309 306 298 294 294 294 293 294 295 295 306 305 305 304 304 306 303 305 305 303 303 304 303 303 303 302 301 301 299 299 299 301 299 297 297 298 299 299 301 299 300 300 300 301 301 303 304 304 305 306 307 308 309 309 309 311 311 311
325 326 327 327 325 323 322 321 321 323 321 321 320 319 319 318 319 319 318 317 317 315 312 311 312 308 307 310 315 312 311 300 296 298 300 301 304 305 304 305 304 302 303 303 304 303 303 303 305 306 303 302 301 301 300 299 299 298 298 297 297 298 300 300 301 298 299 299 299 299 300 301 301 302 303 303 305 306 306 308 307 307 308 310 309
324 323 325 324 323 322 322 322 320 321 320 319 319 319 318 316 317 316 314 315 315 315 315 312 308 306 304 305 303 306 305 305 305 304 306 305 304 303 302 302 302 303 302 302 305 305 302 303 305 304 302 300 300 300 299 297 297 296 296 295 294 294 295 295 296 296 297 297 299 299 299 300 301 301 301 302 303 305 305 306 306 306 306 307 307
324 323 323 323 322 322 323 325 322 320 320 317 316 317 317 317 315 312 310 309 308 311 311 306 304 304 304 303 302 301 301 305 306 305 305 304 303 302 302 301 301 302 301 300 300 301 301 301 302 300 299 298 297 297 296 296 295 294 294 295 293 292 292 293 294 295 295 296 297 298 299 300 300 300 300 302 302 303 304 304 305 306 306 307 307
324 325 326 321 321 320 323 322 320 319 318 318 316 314 313 315 314 315 310 311 312 313 311 306 303 302 302 300 297 297 300 303 305 306 306 304 304 301 299 300 300 300 300 301 300 301 301 302 300 299 298 298 298 297 295 293 293 292 292 294 292 292 291 292 293 294 294 296 296 297 298 299 300 298 299 301 301 301 302 303 304 304 304 305 306
323 321 321 320 319 322 321 322 319 322 319 319 314 314 317 315 313 314 315 315 316 314 309 304 302 302 299 298 296 294 301 305 304 304 304 303 303 302 302 300 299 299 299 299 299 300 302 301 299 298 298 298 297 296 294 292 291 289 289 291 290 290 289 290 292 293 293 294 295 296 297 299 300 299 300 300 298 299 300 300 301 302 302 303 305
325 322 324 323 320 321 320 319 318 316 316 316 314 318 317 315 313 315 315 314 313 313 307 304 303 304 302 301 299 299 301 302 307 304 303 303 301 304 302 299 299 300 299 300 299 299 301 299 298 297 297 297 296 294 292 290 289 288 287 288 289 288 286 289 290 291 292 293 294 296 296 297 299 297 298 300 298 299 299 299 300 300 300 300 302
322 323 323 322 319 317 318 317 317 317 316 318 317 315 317 315 316 315 311 310 310 310 306 305 304 302 302 299 299 300 302 302 301 301 304 304 302 303 301 301 300 299 300 298 298 299 299 298 298 296 296 296 296 294 292 290 289 287 286 285 288 289 286 286 288 289 291 292 292 293 294 296 299 296 297 299 298 298 298 299 299 300 299 298 300
320 320 318 317 317 315 315 316 316 316 317 316 314 314 316 313 312 311 311 309 312 309 307 307 305 304 303 301 301 301 301 300 302 303 302 300 301 302 303 302 303 301 299 298 297 297 298 297 297 297 295 294 294 293 291 291 289 287 286 285 284 284 284 284 285 288 291 291 291 292 294 295 296 295 296 296 299 298 298 298 298 301 298 298 298
319 319 319 317 317 316 316 314 317 314 314 313 312 311 311 311 311 312 311 310 311 310 308 307 305 304 304 302 302 304 301 300 300 301 302 302 301 301 302 299 299 298 298 298 298 298 298 297 296 296 296 294 292 291 290 290 289 288 286 285 285 285 285 285 286 289 290 289 289 291 293 295 297 297 299 297 297 298 298 298 298 299 298 298 298
316 316 315 318 315 315 314 315 314 313 312 312 312 310 309 309 310 311 313 312 308 309 306 305 303 303 303 302 302 301 302 302 301 300 301 301 301 301 302 300 298 296 297 297 299 297 298 298 296 296 296 293 292 290 289 288 287 286 288 285 285 285 284 286 287 288 288 288 290 290 292 294 297 297 297 297 297 297 298 297 298 298 298 298 298
316 316 314 316 315 314 314 313 314 317 313 312 311 311 310 310 310 310 308 309 308 307 306 306 304 303 304 302 304 302 303 302 302 303 302 302 300 298 299 301 299 297 297 296 296 296 296 296 297 297 297 294 292 290 288 287 286 285 284 284 284 285 286 288 286 287 286 287 289 290 292 293 296 297 297 296 296 296 296 295 297 298 298 298 298
313 312 313 312 315 314 313 313 314 311 310 310 310 311 310 310 310 309 309 307 306 306 304 303 302 302 302 302 303 302 303 305 301 300 301 301 299 299 297 298 299 298 297 296 296 297 296 296 297 297 295 292 290 290 289 289 286 286 285 283 285 288 286 287 287 286 288 288 288 289 291 294 295 295 296 295 296 295 295 295 296 297 296 297 297
310 313 312 311 311 310 312 312 311 310 310 310 308 308 309 309 308 308 308 307 306 305 303 302 302 301 300 301 302 302 301 301 300 300 300 299 298 297 297 297 296 297 297 296 297 297 296 296 296 296 293 291 290 289 289 288 287 286 284 284 286 285 286 287 287 288 287 286 287 289 292 294 295 293 292 293 294 294 293 294 296 297 296 295 296
309 308 310 311 310 310 309 308 308 308 307 308 307 308 308 307 306 306 306 305 304 303 303 301 300 300 300 300 304 302 302 300 301 300 299 298 298 298 298 297 297 297 296 296 295 295 296 296 296 295 293 293 291 290 289 288 287 285 286 287 285 285 285 285 285 285 287 288 288 291 294 294 293 292 292 292 294 293 295 295 295 295 294 295 296
Wind_Speed
10 8 8 8 9 9 8 7 7 6 5 6 6 5 5 5 5 5 3 3 2 2 2 3 4 4 4 4 4 4 3 3 3 3 3 4 4 4 4 4 4 4 3 3 4 4 3 4 3 2 2 1 2 2 3 4 3 2 2 1 2 3 4 6 10 12 9 8 11 10 12 13 13 11 13 13 13 12 12 12 12 10 10 10 11
10 8 7 8 9 9 9 7 8 7 6 6 6 6 6 6 6 4 4 4 4 4 4 5 4 5 4 4 4 4 4 4 5 4 4 3 4 3 4 4 4 4 3 4 4 4 4 3 3 3 3 3 3 3 4 4 3 3 3 3 4 5 5 5 7 10 13 10 12 11 11 11 14 12 12 13 13 11 11 11 9 10 10 10 10
10 9 8 8 9 9 9 7 8 8 7 6 7 7 7 7 6 6 5 5 4 5 6 6 6 6 5 4 4 4 5 5 5 5 5 5 4 3 3 3 3 4 4 4 4 3 4 4 4 4 4 4 3 4 4 4 3 3 4 3 4 5 5 5 6 9 12 11 11 13 11 11 12 15 14 13 13 12 11 11 10 9 9 10 10
11 10 9 9 10 9 8 8 8 8 8 7 8 8 8 8 6 5 6 5 6 5 5 6 6 4 4 4 4 5 5 5 6 6 6 4 2 3 4 6 6 4 4 4 4 5 6 5 5 5 5 5 4 4 5 4 4 4 4 4 5 6 6 5 5 7 9 12 11 12 11 11 13 13 12 13 14 12 11 11 10 10 10 10 11
12 10 10 10 9 9 8 8 9 9 9 8 9 8 8 6 6 8 7 6 7 6 5 4 4 5 7 7 6 5 5 6 4 4 1 3 2 3 3 6 7 5 4 5 5 4 6 5 6 5 4 5 5 6 6 5 5 4 5 5 5 6 6 6 7 6 8 11 12 11 11 11 11 13 12 12 12 11 11 11 10 10 11 11 10
12 12 11 10 9 9 9 8 9 9 8 8 8 8 6 5 7 7 7 6 4 4 5 5 5 6 6 5 5 5 5 3 4 1 4 3 3 4 4 5 4 3 4 5 6 5 4 6 6 5 5 6 7 7 6 6 5 5 6 6 6 5 6 7 7 8 8 10 11 13 12 11 12 12 12 12 12 12 11 10 10 10 10 10 10
13 13 12 10 9 9 10 9 9 8 8 7 6 5 5 4 3 2 4 4 3 3 4 5 5 5 5 4 4 3 3 3 1 5 4 3 4 4 4 4 5 5 5 5 4 4 5 5 6 8 8 7 8 9 7 5 6 7 7 7 6 5 6 7 8 9 9 10 11 10 12 11 10 13 13 11 13 11 11 9 9 9 9 10 11
14 13 11 10 10 11 11 10 9 8 8 7 7 6 5 5 4 4 3 3 3 3 4 5 6 5 5 3 2 3 2 2 4 4 4 4 3 4 5 6 6 5 4 4 4 5 6 7 7 7 9 4 5 8 7 7 7 6 7 6 6 6 7 7 8 9 9 10 10 12 10 11 11 10 11 11 11 10 9 10 11 11 11 11 12
14 12 11 11 11 11 10 9 8 8 7 7 7 6 5 5 5 4 3 3 4 5 5 5 6 4 3 3 4 3 2 4 3 4 3 3 4 5 6 7 7 6 6 6 6 6 6 6 6 5 5 7 9 12 10 11 8 7 7 6 7 7 7 8 9 9 9 10 11 10 11 11 11 11 11 11 10 11 11 9 10 12 11 11 11
13 12 12 10 11 11 10 8 8 8 7 7 7 7 7 6 5 5 5 6 6 6 6 5 5 5 4 4 4 2 4 3 5 8 8 5 5 5 5 5 5 6 6 6 6 5 5 5 3 4 6 12 13 11 12 13 11 9 8 9 9 7 9 9 10 10 10 11 11 11 13 12 12 12 12 12 12 12 13 13 12 11 9 11 12
13 13 12 9 10 10 9 9 9 9 8 8 7 7 8 6 5 5 6 6 7 7 7 7 6 5 4 4 4 3 4 4 9 10 9 9 5 4 4 5 5 6 5 4 5 6 5 4 0 5 7 5 6 11 14 15 13 12 13 14 10 9 9 10 10 11 11 11 11 11 12 14 14 13 13 12 12 12 12 12 12 11 11 11 13
12 10 10 9 9 10 9 9 10 10 8 9 8 8 6 6 6 6 6 7 7 7 7 7 7 5 5 5 5 5 5 8 11 10 9 6 3 3 4 5 6 5 4 4 4 4 4 4 3 4 5 5 5 6 10 13 13 12 14 10 8 14 15 12 10 11 12 12 13 12 13 14 14 13 13 12 12 12 12 12 13 11 10 11 11
10 10 10 9 10 10 10 10 10 9 9 9 8 6 6 6 6 6 7 8 6 6 7 7 6 6 6 6 5 5 6 9 10 10 6 4 5 4 4 5 6 6 5 4 4 4 3 4 4 5 6 8 7 6 6 8 11 12 10 8 12 16 16 16 15 12 11 12 13 14 13 15 16 14 13 14 12 14 12 12 12 11 11 11 11
11 11 11 10 10 11 11 10 10 10 9 8 7 6 6 7 7 7 7 5 6 6 7 7 7 6 7 6 7 6 6 7 10 10 9 8 7 4 3 4 5 6 6 5 4 4 4 5 6 7 6 4 4 5 6 7 6 3 3 6 7 11 13 14 15 18 15 11 12 14 16 15 17 17 17 15 16 15 13 14 13 13 12 13 13
10 10 10 10 10 10 11 10 10 9 9 8 7 7 8 8 8 7 7 7 7 8 8 7 6 6 6 6 6 6 5 9 11 9 7 5 5 3 3 4 5 6 6 5 5 5 6 6 5 7 6 5 5 5 5 4 3 4 5 7 8 8 8 10 12 11 11 11 13 15 17 17 17 18 18 16 17 17 15 15 14 13 12 10 10
11 11 11 10 11 12 12 11 10 9 9 9 8 9 9 9 9 7 6 6 6 5 4 4 5 5 6 5 4 5 3 9 9 8 7 6 4 2 3 4 5 5 5 5 5 6 6 6 5 5 5 5 7 6 3 3 2 3 6 7 7 7 8 11 15 15 15 15 14 16 17 20 23 22 21 19 16 16 14 14 14 14 14 14 13
12 12 12 11 11 12 12 12 10 10 10 9 10 10 9 9 7 6 6 6 6 6 6 5 4 4 4 3 3 2 1 4 7 8 6 6 2 4 4 4 3 4 6 6 6 6 6 5 5 6 4 5 2 6 3 3 2 3 6 7 6 7 10 11 13 16 18 21 23 24 25 25 26 28 28 31 23 18 14 13 15 11 11 13 12
12 12 12 11 11 12 12 11 11 11 10 11 11 10 9 8 8 7 8 8 8 8 6 4 3 4 3 6 7 4 2 2 1 2 3 3 4 4 5 4 3 4 5 5 5 6 6 11 9 5 5 2 5 4 4 5 2 4 4 6 8 9 11 10 10 12 18 20 21 22 23 23 26 27 27 25 26 22 17 18 16 11 13 12 11
12 12 12 12 11 11 11 11 12 11 11 11 10 9 9 8 8 6 7 8 7 4 2 2 2 3 3 8 10 9 4 4 6 4 1 4 2 3 4 2 3 3 4 6 5 6 6 6 11 3 2 3 5 5 5 3 3 3 3 5 8 9 10 11 13 15 15 16 16 17 17 19 19 18 18 27 17 17 17 18 14 13 12 11 11
12 13 12 11 11 11 10 11 11 11 11 10 8 8 6 4 4 5 2 1 1 2 1 3 2 1 5 5 5 5 5 3 4 9 1 5 2 2 0 2 3 4 4 5 6 6 6 3 5 3 6 2 3 5 5 3 2 3 3 5 8 11 10 11 13 13 14 15 16 17 18 17 17 16 15 15 8 10 14 15 15 13 13 12 11
12 12 11 10 10 10 10 10 11 10 9 9 7 4 4 4 5 5 4 2 3 2 2 2 1 4 5 5 6 4 5 3 2 3 2 2 1 4 3 2 3 4 5 5 5 6 6 1 5 1 1 4 5 7 5 1 2 3 4 6 7 12 13 11 14 16 13 14 15 15 15 15 15 14 14 12 8 5 10 13 13 14 13 13 12
12 11 9 10 10 10 10 8 9 7 5 5 6 5 4 5 5 7 6 1 4 3 2 4 5 5 4 3 3 3 4 6 2 2 5 3 5 6 4 3 3 4 5 5 5 5 5 6 1 2 3 4 4 5 3 3 4 4 6 9 13 13 12 9 10 10 11 12 13 14 14 15 15 15 15 13 11 9 8 11 13 14 15 13 13
11 10 10 10 9 8 6 5 4 5 5 5 5 6 6 5 5 4 3 2 1 2 4 4 5 5 4 2 2 1 1 1 2 1 4 8 6 4 3 1 5 2 3 5 6 6 5 5 2 3 5 3 4 4 6 8 6 5 9 11 13 14 11 8 9 10 11 13 14 14 15 15 15 15 14 15 14 13 8 10 12 14 14 14 14
5 4 4 4 3 4 5 5 6 6 6 6 6 6 4 5 6 3 3 1 1 3 4 5 2 2 4 4 3 3 1 0 2 5 6 8 7 9 9 8 4 2 3 5 6 6 6 4 6 10 7 5 4 7 8 5 4 8 10 10 12 10 7 8 8 10 11 12 13 14 15 15 14 14 15 14 13 12 11 5 12 13 14 12 13
7 6 4 5 5 5 5 6 6 5 5 6 6 7 4 3 3 2 2 2 4 5 4 3 2 1 4 3 2 1 1 1 4 7 9 9 9 9 9 8 7 5 4 5 4 4 7 10 13 9 7 4 3 5 4 3 6 8 9 11 10 7 8 7 8 9 11 12 13 14 15 15 14 14 15 14 13 13 14 13 5 11 11 11 12
7 6 6 6 6 7 7 6 5 5 5 6 6 5 5 3 2 3 3 5 5 5 3 3 2 2 3 4 3 2 2 2 4 4 5 4 4 6 7 6 7 9 7 5 7 10 10 11 11 7 5 3 2 2 1 2 4 7 9 10 6 6 7 8 9 9 10 11 12 13 14 14 14 14 14 12 14 15 13 13 11 3 8 10 11
6 6 7 6 6 6 7 6 5 5 4 4 5 4 3 5 6 6 5 5 4 3 2 2 2 3 5 5 4 3 4 4 3 2 1 1 1 2 4 3 6 7 6 6 8 7 8 7 6 3 3 5 3 2 4 3 3 5 5 5 5 6 7 6 8 8 10 10 11 12 13 14 14 14 15 16 15 15 14 13 11 11 6 2 5
7 5 6 6 6 6 7 9 8 6 6 6 6 6 6 6 7 6 5 4 5 4 4 3 2 1 4 4 4 5 4 3 1 1 1 1 1 3 3 3 3 4 5 5 7 7 6 6 2 3 1 2 3 3 4 4 4 5 6 6 5 7 9 11 8 6 8 9 9 10 12 13 14 14 14 13 14 13 14 13 12 11 12 6 2
5 4 6 7 6 6 7 6 7 7 8 9 8 6 5 5 7 6 4 3 1 3 5 3 1 2 2 2 2 4 4 2 2 2 0 1 0 1 2 3 4 5 5 6 8 6 3 1 2 4 4 1 3 3 4 5 5 5 6 7 5 6 8 8 9 9 9 10 11 11 12 13 13 13 13 14 14 14 13 12 12 11 9 10 9
4 3 4 6 6 6 5 5 7 8 8 8 9 9 11 10 6 5 4 4 9 9 6 2 0 0 5 3 1 2 4 3 3 3 3 3 2 4 6 6 5 6 10 13 7 4 2 4 4 4 3 2 3 4 5 5 6 6 5 6 5 6 8 8 8 9 10 9 9 10 11 11 12 13 13 13 14 13 13 13 12 10 11 11 9
4 3 4 6 7 6 6 6 8 8 8 8 8 9 7 8 12 12 9 7 7 9 10 8 8 6 5 4 3 7 6 5 5 3 3 4 4 6 7 7 8 9 8 6 2 0 3 5 5 5 4 5 4 5 5 5 6 6 7 6 6 6 6 7 8 9 9 10 10 10 10 10 11 12 12 13 13 12 12 12 11 10 10 9 9
5 4 5 4 5 6 5 5 6 8 7 7 8 8 8 8 5 8 7 6 7 9 10 10 9 8 7 5 4 1 1 1 3 4 5 5 8 7 7 8 9 8 11 3 2 6 5 5 5 5 4 4 4 5 6 6 6 6 6 7 7 7 7 8 8 8 8 9 10 11 11 10 10 11 11 11 13 12 12 13 12 11 11 9 9
4 4 6 5 5 4 6 6 5 5 7 8 7 7 8 7 8 5 3 5 6 7 9 8 8 7 6 6 4 3 3 3 4 5 6 7 8 9 8 7 8 7 7 6 5 5 5 4 5 4 4 4 4 5 4 6 6 6 6 6 7 7 7 7 7 7 7 8 8 9 10 11 10 11 10 11 11 11 12 12 12 12 11 10 11
4 5 6 6 5 6 6 6 5 6 8 9 8 7 7 7 8 8 7 4 3 3 3 4 3 4 4 4 5 6 5 4 6 7 7 8 8 10 6 4 1 3 6 5 5 4 3 4 3 3 2 3 4 4 3 4 5 5 5 5 5 6 7 6 7 8 8 8 9 9 10 10 10 11 11 11 11 11 12 12 12 12 12 12 10
3 4 8 8 5 4 3 4 5 6 6 7 8 8 7 7 8 8 8 7 6 6 4 1 2 3 3 0 1 2 5 7 7 6 6 8 9 8 6 5 6 4 5 4 3 4 3 2 1 1 1 1 1 2 2 3 4 4 6 5 6 6 6 7 7 8 8 8 8 9 9 9 10 10 10 10 11 12 11 12 11 11 11 12 11
3 2 0 2 6 6 6 6 6 5 3 3 3 5 7 8 7 7 7 7 7 6 5 5 5 7 7 4 4 4 6 9 9 8 8 8 11 5 6 6 4 4 3 2 2 1 1 0 0 1 1 1 1 1 2 2 3 5 5 5 6 6 6 6 7 8 8 7 8 9 9 9 9 10 9 9 11 11 11 11 11 11 12 11 11
3 4 5 5 5 6 6 6 5 6 5 4 7 6 6 7 7 8 7 7 7 7 7 6 5 2 1 2 4 6 8 8 9 8 9 10 8 4 6 5 5 4 3 2 1 0 0 1 2 1 2 1 1 2 2 3 3 3 4 4 5 6 6 6 6 6 7 7 8 8 9 9 9 10 10 10 10 10 10 11 11 11 11 13 13
5 5 5 5 5 5 6 5 6 6 5 5 4 5 5 5 6 6 6 6 7 7 6 6 6 6 5 4 4 1 2 8 7 6 7 7 2 5 5 5 4 4 3 1 1 1 1 3 2 1 4 5 5 4 4 5 5 5 5 4 5 6 8 7 7 7 7 6 7 8 8 9 9 9 10 9 9 9 10 11 10 10 11 12 11
4 5 9 10 6 5 5 6 5 5 5 5 5 4 4 4 5 5 6 6 6 7 7 6 5 5 3 3 3 3 5 1 3 5 3 3 2 4 5 5 4 3 2 1 0 1 3 3 3 4 4 5 6 5 5 5 6 6 6 5 6 5 6 6 7 7 7 8 8 7 7 7 8 8 8 8 9 9 9 9 10 10 10 10 9
5 4 5 7 4 4 4 4 4 5 4 5 5 3 4 3 3 5 6 6 5 4 7 7 6 5 4 3 1 3 4 4 1 2 3 2 3 4 5 5 4 3 2 3 4 3 2 3 3 5 5 4 5 6 6 6 6 6 6 5 6 6 6 6 7 7 8 8 8 8 8 7 7 8 8 8 8 8 9 9 9 9 9 9 9
5 3 4 3 5 4 3 3 4 4 4 4 4 4 5 3 2 4 6 5 4 4 7 7 7 5 4 6 6 4 1 3 1 2 4 3 3 4 5 4 3 3 3 3 3 4 3 3 5 4 5 5 5 5 5 6 6 6 6 5 5 6 6 6 6 7 8 8 8 9 9 7 7 8 8 8 9 8 8 8 8 8 8 8 9
5 4 3 3 3 3 3 3 3 3 4 3 3 3 2 2 2 2 1 1 3 4 6 6 5 5 5 9 7 5 1 2 2 4 3 2 2 3 5 4 3 3 3 3 3 3 3 3 4 5 5 4 5 5 6 6 6 6 6 5 5 6 6 6 6 7 7 7 8 8 9 8 7 8 8 7 8 7 8 8 8 8 8 8 8
4 4 4 3 3 1 3 4 3 4 5 3 3 4 4 3 3 2 1 1 1 3 7 6 5 3 3 4 4 3 0 1 1 1 2 2 2 1 3 6 5 5 3 3 3 4 2 4 5 5 5 5 5 6 6 6 6 5 5 5 5 5 6 5 6 7 7 7 8 8 9 9 6 7 7 7 7 8 7 8 8 8 8 8 8
3 3 3 3 4 3 3 4 5 3 0 5 5 3 3 2 1 2 1 0 1 3 7 6 6 5 4 2 1 0 0 0 1 1 0 1 2 3 3 4 5 5 4 4 4 4 6 5 6 6 6 6 6 6 6 6 6 5 5 5 5 6 5 5 6 6 7 7 7 7 8 8 7 6 7 8 7 8 8 9 8 8 8 8 8
5 4 4 5 3 3 3 3 3 3 3 4 4 2 2 3 3 2 2 1 1 3 7 7 7 6 5 5 3 3 2 2 1 0 1 3 3 3 6 3 4 5 5 4 4 4 5 6 5 4 5 6 6 6 6 6 5 5 5 5 5 5 5 5 5 5 5 6 6 7 7 7 7 6 7 8 8 8 8 8 8 7 8 9 8
3 3 3 3 3 3 4 2 2 3 5 4 5 4 4 3 4 3 4 4 4 4 6 5 6 6 6 6 6 4 4 4 3 4 5 5 4 2 2 7 6 6 6 5 5 5 5 5 5 4 5 6 6 6 6 5 5 5 4 5 4 4 3 4 5 5 5 6 6 6 7 7 6 5 10 7 7 7 8 8 8 8 7 8 8
2 3 3 4 3 3 3 3 3 3 3 3 3 5 6 5 5 4 2 2 4 5 7 6 6 6 6 6 6 5 4 5 6 6 5 6 4 2 6 5 6 6 5 5 4 5 4 4 5 4 5 6 7 7 6 5 5 5 3 4 3 4 4 4 4 4 5 5 5 5 6 6 6 4 8 8 7 8 8 8 8 8 8 8 8
2 3 3 6 5 5 4 3 5 5 5 4 4 3 3 5 5 5 5 4 3 4 5 5 6 6 7 6 6 6 6 6 5 5 7 4 5 6 4 4 6 6 6 6 6 5 5 4 3 4 7 7 7 6 5 5 4 4 3 4 3 4 6 6 3 5 5 5 5 5 5 6 5 6 6 7 7 7 8 8 8 7 8 8 8
4 2 0 2 5 5 5 6 4 5 6 5 5 6 5 5 5 5 5 5 5 5 5 3 4 5 6 6 5 7 7 7 8 7 4 6 5 5 5 4 4 6 6 6 6 5 4 4 4 6 7 7 6 6 5 4 3 3 3 3 6 9 8 8 5 6 7 6 6 6 6 5 6 7 7 7 8 7 7 8 8 8 8 8 9
4 3 3 3 2 4 6 7 7 6 6 5 5 5 5 5 6 6 5 6 5 5 5 6 5 6 6 4 2 3 2 2 1 2 6 7 6 6 5 4 4 3 6 6 6 5 5 4 5 7 8 7 6 5 5 4 3 2 2 4 6 9 10 11 8 10 8 6 5 5 5 5 6 6 7 7 7 7 8 8 8 7 8 8 9
4 4 5 4 4 4 4 6 7 7 6 6 6 6 6 6 6 6 6 7 7 7 8 7 7 7 6 5 4 4 3 4 5 4 7 7 7 6 6 4 3 4 5 6 5 6 6 4 5 8 8 7 6 5 4 3 2 1 3 6 8 8 9 9 7 10 11 8 5 5 4 6 6 7 7 7 6 7 9 9 8 8 8 7 8
Wind_Direction
170 166 165 164 161 163 164 166 168 169 167 168 172 187 203 214 203 207 180 190 203 204 217 237 243 238 244 249 243 246 254 267 265 269 273 283 275 247 245 238 234 239 232 234 196 200 212 203 216 205 175 163 222 244 262 268 284 295 284 241 248 248 264 280 296 299 299 294 300 300 303 303 293 280 277 272 267 260 251 248 245 240 235 231 232
166 163 162 168 163 159 161 167 170 169 172 177 181 192 206 208 208 192 194 222 197 211 220 230 229 234 235 236 229 235 248 256 261 260 262 255 259 248 247 242 242 246 239 235 220 216 202 178 203 208 182 193 212 232 246 269 269 283 277 253 244 260 247 269 283 294 302 312 305 305 299 299 295 290 281 279 272 262 253 247 240 234 232 231 229
163 161 164 165 164 159 161 168 170 173 177 187 192 198 205 216 211 203 200 205 210 219 226 225 231 229 224 229 247 247 244 244 244 237 238 249 257 250 235 241 246 252 252 247 228 208 217 201 207 209 196 200 222 234 241 250 249 250 261 256 262 260 259 248 277 295 302 305 303 303 305 304 295 296 290 280 273 266 261 249 240 234 233 228 230
162 160 168 169 165 160 164 174 175 179 186 188 196 202 206 217 208 191 195 196 208 224 223 226 220 222 239 255 248 247 248 249 245 231 232 249 314 339 351 313 271 241 237 249 249 212 210 204 217 216 205 204 217 231 239 239 241 240 247 259 256 267 264 262 253 275 294 301 305 301 305 303 299 292 290 284 278 271 258 254 241 239 234 231 230
164 164 169 172 166 160 167 175 181 185 189 190 199 204 213 203 170 196 199 205 213 213 220 229 241 246 244 241 241 243 244 241 237 240 261 88 184 208 215 252 254 246 248 256 260 237 222 218 226 221 204 213 221 227 232 242 247 243 249 253 253 258 268 269 273 270 287 295 299 297 298 293 289 290 292 287 282 272 261 253 244 237 237 233 231
165 169 176 171 164 165 174 179 186 190 193 195 200 207 198 175 181 185 184 191 208 226 237 248 230 232 232 240 243 243 244 232 226 201 129 195 242 251 228 236 235 232 242 251 251 248 232 235 234 227 226 219 223 222 224 237 246 249 250 251 249 253 264 275 279 284 285 288 295 300 300 301 301 293 297 294 288 283 272 258 251 243 239 237 232
165 174 179 166 165 173 179 187 190 191 197 200 203 200 198 200 211 219 139 153 177 206 231 229 241 241 247 240 237 237 220 237 108 130 181 207 232 252 250 238 242 246 242 237 241 241 243 230 226 223 222 222 222 216 216 229 242 246 248 250 251 257 269 280 289 293 291 294 294 287 292 292 288 297 299 295 285 274 275 274 258 245 237 233 238
168 177 172 166 171 180 186 187 189 193 193 195 196 197 193 201 203 183 177 177 179 200 235 253 257 243 225 212 234 247 273 95 142 175 195 207 224 252 262 267 266 261 254 249 247 254 255 249 243 235 228 250 359 347 334 285 263 258 258 253 256 264 272 284 294 293 294 295 293 297 293 293 296 283 288 294 292 282 261 256 258 255 244 236 233
170 172 171 171 178 183 186 185 187 188 182 182 191 198 203 207 200 185 175 189 212 223 227 241 263 253 258 265 265 265 138 170 166 195 220 230 208 222 232 237 247 260 267 274 272 266 260 264 264 266 63 96 223 220 218 238 254 266 273 279 276 273 279 286 293 293 293 294 293 290 290 293 290 294 298 295 290 292 295 276 261 255 255 253 245
166 171 173 174 178 182 182 181 186 189 184 182 186 193 200 200 191 191 201 215 220 221 221 232 238 234 241 263 273 241 177 187 218 215 212 203 211 225 229 236 240 245 255 261 267 265 268 272 302 72 171 221 227 230 239 256 257 248 257 267 269 278 277 287 291 292 293 294 293 296 297 291 292 288 285 283 284 283 282 280 266 262 261 261 259
167 169 178 168 173 178 176 181 183 187 191 190 193 200 205 197 194 200 207 213 218 217 214 222 228 224 215 210 228 184 198 214 219 222 224 228 230 254 251 255 243 234 228 233 261 272 279 293 195 240 258 235 229 228 239 249 258 267 265 258 250 260 277 282 286 290 293 290 291 291 288 289 287 285 281 283 281 277 278 277 269 260 251 247 249
165 165 168 161 168 174 176 177 181 186 186 193 199 200 195 193 200 205 209 219 223 217 217 220 225 227 218 211 222 199 209 223 217 224 230 240 251 248 270 273 273 271 264 260 256 259 270 287 244 259 256 249 239 240 244 255 265 271 271 266 252 262 256 255 276 292 287 292 291 290 290 287 288 286 284 279 278 277 270 272 268 255 248 245 244
152 163 164 160 168 171 175 177 181 184 189 197 199 192 189 194 205 208 216 221 221 218 221 226 227 214 203 208 216 213 220 224 214 222 233 248 265 245 238 256 272 277 279 272 268 265 280 278 265 258 259 253 252 252 257 269 272 270 282 281 264 259 267 273 265 264 275 279 285 286 286 289 288 283 277 276 272 271 273 269 267 260 250 248 250
155 159 164 166 167 174 177 180 185 189 192 196 196 194 190 202 211 215 219 221 220 223 224 227 227 214 209 213 221 219 216 209 199 205 210 212 227 219 252 268 274 278 281 279 277 283 282 282 265 277 279 277 252 242 248 256 274 275 249 257 270 281 281 277 280 280 278 280 283 287 286 287 284 282 276 270 268 264 262 259 263 265 254 241 239
155 158 165 173 172 177 179 184 189 192 196 195 193 196 197 206 214 218 214 215 217 217 219 226 228 218 213 211 211 212 207 191 190 199 209 226 246 246 271 280 282 284 286 283 274 274 281 270 252 260 281 278 268 255 248 241 239 267 282 282 278 283 290 295 295 297 297 294 290 286 287 284 280 277 275 267 258 257 252 254 256 262 274 275 261
166 167 172 173 178 181 183 186 190 193 195 194 196 200 202 204 213 214 209 215 220 219 229 223 225 220 217 212 206 213 192 180 185 196 209 224 232 265 263 269 276 280 282 277 274 273 270 265 261 270 259 262 272 274 211 186 228 264 275 277 284 290 293 286 284 284 288 293 293 290 290 287 283 281 275 269 259 251 247 247 249 250 251 251 249
170 175 178 179 182 184 184 186 190 195 193 193 200 202 203 208 215 203 204 211 221 224 227 226 222 219 226 208 206 224 126 207 187 207 217 223 221 254 259 264 272 281 281 276 274 275 279 276 270 261 250 253 4 117 164 210 240 270 276 285 293 301 299 299 297 298 298 295 292 290 287 287 286 283 276 264 253 241 237 234 233 224 241 245 243
175 175 180 185 185 185 187 186 192 196 195 197 202 203 201 201 204 198 198 210 224 228 221 234 216 189 155 82 78 80 62 328 249 227 240 300 273 280 280 281 290 288 283 281 280 282 277 279 287 264 253 306 96 165 215 228 251 259 282 302 309 306 299 304 312 308 302 297 296 297 298 297 297 295 287 272 251 230 213 222 221 212 229 239 242
175 178 185 187 185 187 188 191 193 197 199 204 202 200 199 199 209 198 207 213 223 213 214 199 144 179 101 105 113 106 89 72 114 126 198 267 234 240 254 286 313 298 297 295 293 288 294 297 303 336 153 130 168 216 236 251 238 264 305 316 302 298 297 313 314 312 313 318 317 318 315 311 312 311 307 305 270 216 207 214 213 212 224 232 240
175 183 185 185 186 187 190 193 196 197 202 205 201 201 196 194 206 202 226 244 185 205 202 128 183 192 104 127 112 122 126 162 180 195 157 44 196 225 184 19 331 319 322 317 316 311 297 339 343 91 122 123 288 276 288 309 298 312 324 301 300 295 304 315 305 305 310 315 316 318 316 315 315 315 316 320 286 209 204 209 209 208 215 228 235
176 185 183 181 183 189 193 194 198 200 198 197 187 170 137 126 135 141 160 175 171 178 138 174 131 85 107 100 119 125 151 180 235 81 64 74 58 54 29 5 353 345 327 320 312 309 305 271 228 192 91 335 300 296 296 8 223 276 286 309 302 296 307 302 303 309 313 316 318 317 318 319 319 320 322 328 319 218 201 207 205 208 212 218 231
183 178 177 183 187 195 195 200 199 188 168 144 135 129 135 120 120 84 79 100 230 164 129 128 111 97 91 104 118 158 202 200 188 51 53 16 54 57 35 360 9 333 323 309 303 300 308 309 320 210 273 287 279 280 311 347 331 334 329 305 294 309 314 305 303 312 316 321 320 320 322 325 328 327 330 330 336 319 214 199 201 206 212 219 224
170 173 182 188 195 194 189 174 136 131 132 122 113 113 121 116 107 112 126 202 202 94 109 103 103 123 138 146 173 222 269 1 88 95 84 65 59 80 89 336 345 344 299 297 294 291 297 295 312 300 301 343 348 38 50 22 4 338 320 318 318 324 320 316 323 324 325 324 324 324 324 327 331 329 330 337 332 328 301 205 201 203 210 216 227
115 121 133 136 121 119 116 116 127 120 123 122 119 122 123 115 99 88 228 211 122 109 99 103 113 129 126 145 176 214 181 109 131 84 72 68 60 31 12 0 6 308 295 277 287 288 289 296 313 310 318 342 0 87 93 57 351 327 331 331 329 323 326 330 336 331 327 327 326 324 325 328 327 328 336 332 328 319 321 243 198 206 204 208 222
111 119 131 143 139 137 121 122 130 133 132 123 113 111 101 96 107 203 195 128 115 111 137 143 141 168 122 166 189 249 55 94 75 74 58 43 38 22 357 351 359 15 336 297 285 299 307 313 320 317 306 329 20 110 94 39 0 334 338 343 348 345 341 336 338 337 334 331 327 325 325 329 328 325 326 329 328 350 4 354 217 194 203 205 220
108 113 114 113 121 121 123 131 134 138 124 119 132 146 147 163 183 138 116 109 115 122 162 165 168 146 148 166 188 184 124 100 85 62 55 32 27 4 351 347 357 351 340 313 342 330 329 324 316 305 288 14 24 55 21 356 335 333 344 347 345 342 345 344 340 342 333 327 328 329 325 323 326 327 326 337 1 7 358 3 352 225 191 195 204
87 84 94 125 144 147 133 129 116 112 109 92 70 57 66 107 101 88 83 94 100 103 94 125 142 142 165 184 178 128 112 85 74 94 94 78 30 4 350 341 355 357 353 345 339 330 322 316 313 336 60 62 58 325 307 311 313 339 341 337 336 344 346 348 338 330 320 327 332 329 325 325 321 333 350 355 360 4 6 2 5 355 325 134 173
108 103 99 104 115 120 118 130 124 94 62 59 57 49 44 73 85 73 70 83 101 82 86 70 93 172 200 182 149 137 123 123 143 134 111 54 28 5 344 345 359 351 336 330 325 312 303 293 3 36 26 55 29 2 331 326 341 350 342 339 337 347 343 341 338 319 336 332 329 327 330 330 337 342 346 355 357 359 5 12 6 1 4 353 75
83 83 104 114 114 119 122 130 123 110 94 76 62 45 35 60 89 71 21 340 51 129 114 104 82 1 93 104 167 175 164 155 179 186 134 67 101 345 328 349 347 328 307 326 320 309 297 85 70 26 16 21 10 341 342 349 347 344 342 345 345 356 349 349 354 347 333 336 337 338 339 337 337 342 346 353 359 354 360 9 12 13 8 37 41
117 131 125 129 134 137 140 141 116 118 117 112 103 77 50 43 41 113 124 44 55 54 76 105 259 67 102 34 353 131 154 177 139 151 216 244 252 246 273 294 294 289 297 310 292 275 314 53 45 28 354 13 5 0 356 354 342 339 343 337 349 0 357 348 349 343 340 329 333 342 344 340 345 345 349 353 348 354 356 4 10 8 21 20 23
142 143 133 144 152 152 143 113 113 128 124 122 110 110 103 52 39 37 50 60 63 64 64 60 50 73 117 111 36 69 102 122 161 198 238 251 234 249 259 271 282 282 291 328 322 308 16 59 44 21 9 11 20 4 1 354 346 343 341 344 352 356 356 349 344 339 339 339 340 341 344 346 350 347 347 350 348 349 351 360 2 6 21 20 20
152 137 112 108 125 143 128 115 113 107 122 127 127 132 122 112 64 28 31 41 53 61 58 48 42 46 83 116 133 48 77 176 192 227 238 245 249 249 257 263 279 296 316 254 35 34 23 42 35 15 10 12 14 13 6 3 347 346 342 350 354 355 355 351 340 335 334 337 342 342 343 350 350 348 351 349 350 349 353 356 356 358 10 13 21
134 120 106 121 108 113 104 104 108 122 134 140 145 143 139 140 130 114 27 29 54 63 54 41 39 32 47 68 75 116 158 181 230 248 249 252 250 249 250 273 282 315 354 46 57 43 29 40 32 20 15 15 13 15 10 4 352 353 350 350 350 346 346 340 337 337 338 339 340 344 342 344 348 353 351 353 355 351 353 357 355 358 2 4 11
122 110 122 145 140 146 153 153 152 142 140 155 158 157 156 147 143 142 136 120 74 26 30 42 52 40 11 27 19 4 346 313 299 293 285 274 259 248 216 246 306 104 98 64 60 54 35 41 38 20 14 18 17 1 7 356 355 348 341 347 336 337 336 337 352 350 346 343 349 345 344 346 349 354 353 354 356 357 359 355 356 357 3 4 2
129 171 163 136 116 124 121 118 136 147 140 143 149 160 152 147 143 148 152 155 160 163 174 202 272 206 195 24 10 294 294 295 290 282 272 262 271 242 160 128 93 61 47 63 79 82 65 51 21 349 341 349 344 344 353 352 342 343 341 335 341 339 343 353 360 351 350 346 350 349 344 345 350 354 351 354 359 0 358 356 354 357 1 2 357
142 114 19 108 106 110 106 97 78 63 67 72 96 116 141 146 149 158 157 159 158 159 161 180 200 232 220 241 268 289 286 286 289 298 309 339 347 68 99 92 99 90 79 76 77 109 116 176 237 251 279 302 277 313 317 342 340 330 322 342 346 342 346 356 357 355 352 350 348 346 347 351 351 353 351 356 6 3 357 357 354 354 2 4 356
101 94 98 98 106 106 107 109 111 123 126 117 118 138 146 148 150 156 162 163 162 163 167 169 172 171 214 251 233 246 255 268 277 302 313 322 320 63 95 98 110 110 86 48 23 316 255 242 212 244 278 273 311 339 11 357 334 342 345 353 349 347 354 357 357 349 350 351 350 352 355 353 352 355 356 355 357 3 0 359 356 357 359 4 3
104 120 120 116 111 108 103 110 138 145 136 147 140 134 135 138 146 151 148 156 150 156 159 162 174 171 180 199 210 166 241 245 267 298 302 329 11 91 91 94 88 99 93 49 3 357 352 351 352 24 25 28 13 10 20 10 2 9 2 2 4 355 356 358 354 349 346 345 348 352 353 354 355 353 356 356 354 357 359 360 359 357 356 4 7
79 108 127 132 134 132 129 134 149 142 138 136 144 142 146 140 150 140 146 147 157 161 169 162 109 105 101 86 58 356 3 340 213 238 236 224 118 100 110 116 122 124 135 160 335 22 19 31 35 50 38 30 16 12 27 24 14 14 6 12 9 358 4 4 359 355 350 349 345 342 348 350 354 355 354 355 356 354 355 357 0 360 357 358 2
104 88 120 123 107 124 141 145 141 143 147 141 159 158 158 142 139 131 144 153 173 157 122 116 128 140 151 123 74 46 42 322 171 159 136 107 87 80 77 72 65 55 68 56 31 23 42 29 46 54 45 33 25 18 31 27 21 20 8 18 21 12 7 4 2 355 351 344 344 340 343 348 353 355 353 0 359 353 354 356 355 355 355 352 351
93 90 89 112 149 137 150 135 130 144 155 147 148 120 124 128 135 147 170 176 168 154 136 134 140 149 137 136 139 102 104 292 296 99 106 119 106 98 94 96 88 61 56 58 35 18 356 43 69 64 55 42 32 34 38 38 24 24 12 18 27 20 8 4 0 358 349 346 346 343 340 341 355 359 0 356 357 355 357 355 355 355 354 353 356
105 88 80 82 124 143 155 142 151 140 136 102 105 107 100 110 102 61 44 143 153 159 107 111 119 135 130 106 82 82 51 334 49 62 72 73 108 127 141 132 125 125 108 88 66 27 357 66 74 66 62 48 47 52 53 40 35 25 15 15 28 24 14 2 359 356 351 346 345 343 341 337 355 360 354 352 358 354 358 357 358 360 0 358 355
103 101 84 68 45 41 159 150 143 130 93 89 117 114 102 90 81 85 50 55 25 92 119 124 130 121 105 111 102 88 26 298 43 110 148 131 101 132 160 165 174 161 146 128 77 35 35 87 79 71 60 50 61 70 65 56 46 33 23 17 23 32 14 2 357 352 345 348 345 341 338 329 345 1 356 356 358 356 359 356 356 0 4 3 359
130 106 98 97 92 80 71 84 73 51 25 146 125 115 113 102 96 120 125 79 11 95 126 130 135 134 140 141 154 137 222 222 115 2 2 162 198 221 201 201 162 145 120 100 76 61 58 72 76 70 60 55 65 71 71 65 59 51 36 24 23 25 15 5 352 343 339 346 340 337 335 328 331 2 1 357 355 359 357 359 358 356 1 2 1
70 93 97 99 96 93 86 81 100 129 112 108 114 130 145 139 160 185 199 178 219 130 143 146 152 146 151 156 175 191 203 147 127 194 249 266 254 236 226 172 119 124 122 117 102 82 79 76 68 72 76 69 70 74 73 71 72 63 49 41 31 20 4 349 330 314 319 340 335 332 329 333 329 0 7 359 353 355 357 357 354 350 356 2 3
17 104 99 93 97 110 108 116 206 172 147 149 163 167 177 184 197 196 190 191 211 146 151 150 153 154 158 167 185 186 182 166 196 200 215 221 248 264 92 113 121 124 136 137 119 97 89 95 89 80 81 87 82 78 68 68 62 65 59 46 32 12 343 320 305 312 335 340 331 323 324 328 330 4 16 5 353 356 355 353 355 355 357 357 358
162 133 151 153 149 162 175 170 177 160 170 197 201 190 186 187 196 204 196 177 133 122 144 158 154 156 157 162 172 182 189 198 203 205 213 213 219 89 115 130 118 116 107 96 102 102 102 106 114 106 98 93 87 81 75 67 57 50 44 43 27 3 343 334 316 327 334 325 319 314 327 323 336 5 13 6 3 358 357 357 357 356 358 360 358
270 200 192 162 169 171 190 183 193 189 195 209 217 210 190 186 177 176 170 195 148 155 159 166 173 166 163 176 182 187 194 205 213 202 209 192 134 140 135 122 130 132 124 107 99 98 99 96 106 116 109 102 94 91 83 72 61 46 33 19 8 360 349 344 331 344 339 327 323 325 323 325 340 13 12 9 2 1 3 359 354 358 1 360 359
304 272 303 143 169 183 183 195 206 200 203 208 210 205 202 191 183 177 174 175 165 165 172 175 166 174 165 176 186 189 189 196 204 206 138 136 138 128 118 108 113 130 126 127 134 128 126 121 108 97 100 100 98 96 94 89 71 43 23 9 354 356 360 2 3 348 338 341 340 333 337 328 9 19 13 9 2 3 6 2 1 1 3 1 3
332 323 296 276 248 201 196 194 193 197 202 208 215 216 200 187 182 184 181 181 180 178 184 186 176 165 159 173 200 198 174 178 173 176 133 140 130 135 125 126 135 137 141 145 150 148 147 144 134 111 107 108 105 101 99 96 83 61 29 4 3 1 4 2 2 359 359 348 331 324 314 360 21 18 12 6 3 7 12 6 4 5 8 3 4
320 322 309 291 268 251 218 200 192 195 194 199 206 207 199 196 193 189 189 186 183 181 185 181 167 163 166 173 190 185 176 183 196 153 130 140 139 137 134 133 125 114 128 135 137 140 146 146 134 114 113 108 107 108 107 112 122 100 20 14 17 13 11 12 358 346 347 351 340 334 350 29 30 21 12 6 6 17 14 9 6 8 8 4 2